This is the latest recevied weather packets stored in our database for station/object KK4WXG. If no packets are shown the sender has not sent any weather packets the latest 10 day(s).
| Time | Temp. | Humidity | Pressure | Rain* | Wind** | Luminosity | Snow |
|---|---|---|---|---|---|---|---|
| 1777648827 | 15° C | 45% | 1013.8 hPa | 0 mm | - | 888 W/m² | - |
| 1777648524 | 14.44° C | 48% | 1013.9 hPa | 0 mm | - | 879 W/m² | - |
| 1777648220 | 14.44° C | 52% | 1014.1 hPa | 0 mm | - | 863 W/m² | - |
| 1777647915 | 14.44° C | 50% | 1013.9 hPa | 0 mm | - | 858 W/m² | - |
| 1777647613 | 13.89° C | 55% | 1014.1 hPa | 0 mm | - | 802 W/m² | - |
| 1777647308 | 13.89° C | 53% | 1014.2 hPa | 0 mm | - | 840 W/m² | - |
| 1777647007 | 14.44° C | 47% | 1014.1 hPa | 0 mm | - | 828 W/m² | - |
| 1777646702 | 13.89° C | 50% | 1014 hPa | 0 mm | - | 819 W/m² | - |
| 1777646398 | 13.89° C | 47% | 1014.3 hPa | 0 mm | - | 797 W/m² | - |
| 1777646094 | 14.44° C | 48% | 1014.2 hPa | 0 mm | - | 790 W/m² | - |
| 1777645791 | 13.89° C | 55% | 1014.4 hPa | 0 mm | - | 773 W/m² | - |
| 1777645490 | 13.33° C | 53% | 1014.3 hPa | 0 mm | - | 726 W/m² | - |
| 1777645190 | 12.78° C | 54% | 1014.3 hPa | 0 mm | - | 681 W/m² | - |
| 1777644886 | 13.33° C | 52% | 1014.5 hPa | 0 mm | - | 566 W/m² | - |
| 1777644585 | 13.89° C | 56% | 1014.3 hPa | 0 mm | - | 519 W/m² | - |
| 1777644280 | 14.44° C | 54% | 1014.5 hPa | 0 mm | - | 513 W/m² | - |
| 1777643976 | 13.89° C | 57% | 1014.6 hPa | 0 mm | - | 752 W/m² | - |
| 1777643674 | 12.78° C | 59% | 1014.4 hPa | 0 mm | - | 620 W/m² | - |
| 1777643371 | 12.22° C | 60% | 1014.6 hPa | 0 mm | - | 598 W/m² | - |
| 1777643067 | 12.22° C | 61% | 1014.4 hPa | 0 mm | - | 586 W/m² | - |
| 1777642764 | 12.22° C | 64% | 1014.3 hPa | 0 mm | - | 391 W/m² | - |
| 1777642461 | 12.22° C | 61% | 1014.3 hPa | 0 mm | - | 598 W/m² | - |
| 1777642158 | 12.22° C | 62% | 1014.3 hPa | 0 mm | - | 516 W/m² | - |
| 1777641855 | 12.22° C | 65% | 1014.5 hPa | 0 mm | - | 533 W/m² | - |
| 1777641555 | 12.22° C | 64% | 1014.3 hPa | 0 mm | - | 553 W/m² | - |
* Rain latest hour (hover to see other rain measurements)
** Current wind speed in m/s (hover to see current wind gust speed)